User: anonymous   Login
Location: Unspecified
(0.0000°N, 0.0000°E)
Time: 05:25:21
(UTC+00:00)
Language:

ATS 6 - Orbit

View from above orbital plane
View from above orbital plane
View from above satellite
View from above satellite

Ground track
Ground track

The orbit data is extracted from the following two-line orbital elements,

1  7318U 74039A   18348.83560449 -.00000122 +00000-0 +00000-0 0  9991
2  7318 008.5389 300.9631 0028719 249.1161 315.8917 01.01978710094042
Epoch (UTC): 14 December 2018 20:03:16
Eccentricity: 0.0028719
inclination: 8.5389°
perigee height: 35194 km
apogee height: 35434 km
right ascension of ascending node: 300.9631°
argument of perigee: 249.1161°
revolutions per day: 1.01978710
mean anomaly at epoch: 315.8917°
orbit number at epoch: 9404

The dashed part of the orbit path shows where the satellite is in the earth's shadow,  

DLR